Location: Coopersdale
(40.3556°N, 78.9372°W)
Time: 18:48:46
(UTC+00:00)

Transit 4A - Pass Details

Date: 25 January 2021
Orbit: 866 x 978 km, 66.8° (Epoch: 25 February)

Event Time Altitude Azimuth Distance (km) Brightness Sun altitude
Rises 22:56:26 0° 184° (S) 3,650 11.3 -6.2°
Reaches altitude 10° 22:59:08 10° 176° (S) 2,713 10.5 -6.7°
Maximum altitude 23:04:58 39° 110° (ESE) 1,424 8.5 -7.7°
Drops below altitude 10° 23:10:49 10° 44° (NE) 2,725 9.8 -8.8°
Enters shadow 23:12:04 - 40° (NE) 3,155 10.2 -9.0°
Sets 23:13:32 0° 37° (NE) 3,668 - -9.3°
